Weather History for KHOB - November, 2013

Change the Weather History Date:

Saturday, November 16, 2013

  Actual Average Record
Temperature  
Mean Temperature 62 °F -  
Max Temperature 73 °F 63 °F 78 °F (1952)
Min Temperature 50 °F 37 °F 19 °F (1997)
Degree Days  
Heating Degree Days 4    
Growing Degree Days 12 (Base 50)    
Moisture  
Dew Point 42 °F    
Average Humidity 51    
Maximum Humidity 77    
Minimum Humidity 25    
Precipitation  
Precipitation 0.00 in - - ()
Sea Level Pressure  
Sea Level Pressure 29.77 in    
Wind  
Wind Speed 10 mph (SSW)    
Max Wind Speed 31 mph    
Max Gust Speed 41 mph    
Visibility 10 miles    
Events      
Averages and records for this station are not official NWS values.
T = Trace of Precipitation, MM = Missing Value Source: NWS Daily Summary

Daily Weather History Graph

Daily Weather History Graph

Search for Another Location

Airport or City:

Trip Planner

Search our weather history database for the weather conditions in past years. The results will help you decide how hot, cold, wet, or windy it might be!

Date:

Astronomy

Nov. 16, 2013 Rise Set
Actual Time 6:24 AM MST 4:51 PM MST
Civil Twilight 5:57 AM MST 5:17 PM MST
Nautical Twilight 5:28 AM MST 5:47 PM MST
Astronomical Twilight 4:58 AM MST 6:16 PM MST
Moon 4:25 PM MST (11/16) 5:25 AM MST (11/16)
Length of Visible Light 11h 19m
Length of Day
10h 27m
Waxing Gibbous, 99% of the Moon is Illuminated
Nov 16
Waxing Gibbous
Nov 17
Full
Nov 25
Last Quarter
Dec 2
New
Dec 9
First Quarter

Hourly Weather History & Observations

Time (MST) Temp. Dew Point Humidity Pressure Visibility Wind Dir Wind Speed Gust Speed Precip Events Conditions
12:15 AM 59.0 °F 42.8 °F 55% 29.81 in 10.0 mi SSW 9.2 mph - N/A   Mostly Cloudy
12:35 AM 59.0 °F 42.8 °F 55% 29.80 in 10.0 mi South 5.8 mph - N/A   Mostly Cloudy
12:55 AM 57.2 °F 42.8 °F 59% 29.79 in 10.0 mi South 6.9 mph - N/A   Partly Cloudy
1:15 AM 57.2 °F 42.8 °F 59% 29.79 in 10.0 mi Calm Calm - N/A   Scattered Clouds
1:35 AM 57.2 °F 42.8 °F 59% 29.79 in 10.0 mi Calm Calm - N/A   Partly Cloudy
1:55 AM 57.2 °F 42.8 °F 59% 29.78 in 10.0 mi South 6.9 mph - N/A   Mostly Cloudy
2:15 AM 57.2 °F 42.8 °F 59% 29.78 in 10.0 mi South 10.4 mph - N/A   Partly Cloudy
2:35 AM 57.2 °F 42.8 °F 59% 29.78 in 10.0 mi South 10.4 mph - N/A   Scattered Clouds
2:55 AM 57.2 °F 42.8 °F 59% 29.78 in 10.0 mi South 10.4 mph - N/A   Scattered Clouds
3:15 AM 57.2 °F 42.8 °F 59% 29.79 in 10.0 mi South 10.4 mph - N/A   Partly Cloudy
3:35 AM 59.0 °F 42.8 °F 55% 29.78 in 10.0 mi South 13.8 mph - N/A   Clear
3:55 AM 59.0 °F 42.8 °F 55% 29.78 in 10.0 mi South 13.8 mph - N/A   Partly Cloudy
5:50 AM 55.4 °F 46.4 °F 72% 29.79 in 10.0 mi SSE 12.7 mph - N/A   Mostly Cloudy
6:50 AM 55.4 °F 48.2 °F 77% 29.81 in 10.0 mi South 11.5 mph - N/A   Mostly Cloudy
7:50 AM 57.2 °F 50.0 °F 77% 29.83 in 10.0 mi South 12.7 mph - N/A   Mostly Cloudy
8:50 AM 59.0 °F 48.2 °F 67% 29.84 in 10.0 mi South 11.5 mph - N/A   Partly Cloudy
9:50 AM 66.2 °F 48.2 °F 52% 29.83 in 10.0 mi South 20.7 mph 26.5 mph N/A   Clear
10:50 AM 71.6 °F 41.0 °F 33% 29.80 in 10.0 mi SW 28.8 mph 34.5 mph N/A   Scattered Clouds
11:50 AM 73.4 °F 41.0 °F 31% 29.77 in 10.0 mi SW 31.1 mph 41.4 mph N/A   Scattered Clouds
12:50 PM 73.4 °F 41.0 °F 31% 29.72 in 10.0 mi SSW 23.0 mph 31.1 mph N/A   Scattered Clouds
1:50 PM 73.4 °F 39.2 °F 29% 29.72 in 10.0 mi SW 23.0 mph 34.5 mph N/A   Scattered Clouds
2:50 PM 73.4 °F 37.4 °F 27% 29.71 in 10.0 mi WSW 25.3 mph 29.9 mph N/A   Scattered Clouds
3:50 PM 73.4 °F 35.6 °F 25% 29.71 in 10.0 mi SW 26.5 mph 32.2 mph N/A   Partly Cloudy
4:50 PM 71.6 °F 35.6 °F 27% 29.72 in 10.0 mi SW 20.7 mph 26.5 mph N/A   Partly Cloudy
5:15 PM 68.0 °F 37.4 °F 33% 29.73 in 10.0 mi SW 13.8 mph - N/A   Clear
5:35 PM 66.2 °F 37.4 °F 35% 29.73 in 10.0 mi SSW 9.2 mph - N/A   Clear
5:50 PM 64.4 °F 37.4 °F 37% 29.73 in 10.0 mi South 5.8 mph - N/A   Clear
5:55 PM 64.4 °F 37.4 °F 37% 29.73 in 10.0 mi South 9.2 mph - N/A   Clear
6:15 PM 60.8 °F 39.2 °F 45% 29.75 in 10.0 mi Calm Calm - N/A   Clear
6:35 PM 59.0 °F 39.2 °F 48% 29.75 in 10.0 mi Calm Calm - N/A   Clear
6:55 PM 59.0 °F 39.2 °F 48% 29.76 in 10.0 mi Calm Calm - N/A   Clear
7:15 PM 59.0 °F 39.2 °F 48% 29.76 in 10.0 mi Calm Calm - N/A   Clear
7:35 PM 60.8 °F 39.2 °F 45% 29.76 in 10.0 mi SSW 11.5 mph - N/A   Clear
7:55 PM 60.8 °F 41.0 °F 48% 29.75 in 10.0 mi SSW 10.4 mph - N/A   Clear
8:15 PM 62.6 °F 41.0 °F 45% 29.76 in 10.0 mi SW 11.5 mph - N/A   Clear
8:35 PM 60.8 °F 41.0 °F 48% 29.77 in 10.0 mi South 8.1 mph - N/A   Clear
8:55 PM 59.0 °F 41.0 °F 51% 29.77 in 10.0 mi SSW 9.2 mph - N/A   Clear
9:15 PM 57.2 °F 41.0 °F 55% 29.77 in 10.0 mi SSW 10.4 mph - N/A   Clear
9:35 PM 57.2 °F 41.0 °F 55% 29.78 in 10.0 mi SSW 5.8 mph - N/A   Clear
9:55 PM 57.2 °F 41.0 °F 55% 29.79 in 10.0 mi SSW 5.8 mph - N/A   Clear
10:15 PM 57.2 °F 42.8 °F 59% 29.79 in 10.0 mi SSW 10.4 mph - N/A   Clear
10:35 PM 57.2 °F 42.8 °F 59% 29.79 in 10.0 mi SSW 8.1 mph - N/A   Clear
10:55 PM 53.6 °F 41.0 °F 62% 29.80 in 10.0 mi Calm Calm - N/A   Clear
11:15 PM 50.0 °F 41.0 °F 71% 29.80 in 10.0 mi Calm Calm - N/A   Clear
11:35 PM 53.6 °F 42.8 °F 67% 29.80 in 10.0 mi WSW 9.2 mph - N/A   Clear
11:55 PM 55.4 °F 42.8 °F 63% 29.80 in 10.0 mi WSW 9.2 mph - N/A   Clear